[[{"header":{"parameterUnit":"m.s-1","parameterCategory":1,"la1":30.2991,"la2":30.254,"lo1":-89.0895,"lo2":-89.0444,"dy":0.0017,"dx":0.0017,"nx":28,"ny":28,"refTime":"2025-07-31T09:00:00:Z","depth":0,"parameterNumber":2,"parameterNumberName":"U-component_of_WINDS"},"data":[0,0,0,0,0,0,0,0,0,0,0,0,0,0,0,0,0,0,0,0,0,0,0,0,0,0,0,0,0,0,0,0,0,0,0,0,0,0,0,0,0,0,0,0,0,0,0,0,0,0,0,0,0,0,0,0,0,0,0.7528,0.7528,0,0.7542,0.7542,0.7542,0.7546,0.7546,0.7546,0.7546,0.756,0.7561,0.7561,0,0,0,0,0,0,0,0,0,0,0,0,0,0.7506,0.7506,0.7528,0.7528,0.7528,0.7542,0.7542,0.7542,0.7546,0.7546,0.7546,0.7546,0.756,0.7561,0.7561,0,0,0,0,0,0,0,0,0,0,0,0,0,0.7517,0.7506,0.7528,0.7532,0.7532,0.7542,0.7542,0.7542,0.7547,0.7546,0.7546,0.7546,0.756,0.7561,0.7561,0.7567,0,0,0.7563,0.7563,0,0,0,0,0,0,0,0,0.7516,0.7518,0.7531,0.7532,0.7532,0.7542,0.7539,0.755,0.7547,0.7541,0.7546,0.7546,0.7554,0.7555,0.7558,0.7568,0.7568,0.7563,0.7564,0.7564,0.7564,0,0,0,0,0,0,0,0.7516,0.7517,0.7533,0.7531,0.7532,0.7533,0.7535,0.7541,0.7548,0.7542,0.7542,0.7544,0.7555,0.7558,0.7559,0.7568,0.7563,0.7564,0.7564,0.7564,0.7584,0.7585,0,0,0,0,0,0,0.7514,0.7517,0.7533,0.7534,0.7524,0.7534,0.7536,0.7539,0.7548,0.7549,0.7544,0.7544,0.7557,0.7558,0.7559,0.7567,0.7564,0.7564,0.7565,0.7584,0.7585,0.7585,0,0,0,0,0,0,0.7514,0.7515,0.7532,0.7525,0.7527,0.7534,0.7538,0.7539,0.7542,0.755,0.7551,0.7545,0.7556,0.7558,0.7565,0.7568,0.7565,0.7565,0.7584,0.7584,0.7585,0.7583,0,0,0,0,0,0,0.7513,0.7515,0.7517,0.7525,0.7528,0.7538,0.7538,0.754,0.7544,0.7544,0.7552,0.7553,0.7557,0.7564,0.7566,0.7568,0.7566,0.7584,0.7584,0.7585,0.7583,0.7583,0.7583,0,0,0,0,0,0.7512,0.7516,0.7517,0.7519,0.753,0.7538,0.7539,0.7544,0.7544,0.7546,0.7551,0.7552,0.7567,0.7565,0.7567,0.757,0.7584,0.7584,0.7585,0.7582,0.7583,0.7583,0,0,0,0,0,0,0.7507,0.7517,0.7519,0.7525,0.7531,0.7539,0.7542,0.7544,0.755,0.755,0.7555,0.7557,0.7564,0.7567,0.7565,0.7576,0.7576,0.7576,0.7573,0.7574,0.7574,0.7573,0.7566,0,0,0,0,0,0.7507,0.7512,0.752,0.7525,0.7528,0.7535,0.7538,0.7541,0.7547,0.7549,0.7555,0.7561,0.7567,0.757,0.7576,0.7583,0.7586,0.7586,0.7587,0.7587,0.7587,0.7592,0.7593,0.7586,0.7586,0.7586,0,0,0.7507,0.7512,0.7515,0.7525,0.7529,0.7535,0.7536,0.7542,0.7546,0.755,0.7557,0.7562,0.7569,0.7576,0.7579,0.7579,0.759,0.7587,0.7587,0.7588,0.7593,0.7593,0.7594,0.7586,0.7586,0.7586,0,0,0.7508,0.7513,0.7518,0.7523,0.7531,0.7535,0.7537,0.7545,0.7548,0.7555,0.7558,0.7564,0.7574,0.7579,0.7583,0.7588,0.7591,0.759,0.7591,0.7596,0.7597,0.7597,0.76,0.7601,0.7591,0.7591,0.7591,0,0.7507,0.7515,0.7521,0.7526,0.7531,0.7535,0.7541,0.7545,0.7554,0.7557,0.7557,0.7571,0.7576,0.7585,0.7586,0.7589,0.7591,0.7589,0.7596,0.7597,0.7598,0.76,0.7601,0.7591,0.7591,0.7591,0.7591,0,0.7513,0.7519,0.7523,0.7532,0.7536,0.7542,0.7548,0.7553,0.7556,0.756,0.7568,0.7575,0.7582,0.7585,0.7587,0.7595,0.7595,0.7595,0.7595,0.7598,0.7601,0.7602,0.7591,0.7591,0.7591,0.7591,0,0,0.7512,0.7525,0.7526,0.753,0.754,0.7544,0.7551,0.7559,0.7563,0.7569,0.7575,0.7584,0.7585,0.759,0.7593,0.7597,0.7602,0.7598,0.7598,0.7599,0.7612,0.7611,0.7612,0.7604,0.7604,0.7604,0.7611,0,0.7515,0.7526,0.7532,0.7541,0.7547,0.7552,0.7558,0.7564,0.7569,0.7575,0.758,0.7587,0.7588,0.7591,0.7595,0.7601,0.7605,0.76,0.761,0.761,0.7608,0.7613,0.7613,0.7619,0.7612,0.7612,0.7612,0,0.752,0.7527,0.7537,0.7547,0.755,0.7554,0.7563,0.7568,0.7576,0.758,0.7585,0.7589,0.7597,0.7596,0.7606,0.7603,0.7607,0.7611,0.7611,0.7612,0.7611,0.7615,0.7621,0.7622,0.7614,0.7614,0.7614,0,0.7519,0.7531,0.7538,0.7542,0.7553,0.7557,0.7562,0.757,0.7575,0.7582,0.7585,0.7593,0.7598,0.7604,0.761,0.7609,0.7621,0.762,0.7624,0.7624,0.7626,0.7626,0.7633,0.7629,0.7629,0.7628,0.7628,0,0.7522,0.7528,0.7538,0.7543,0.755,0.7557,0.7563,0.7569,0.7576,0.7582,0.7587,0.7593,0.76,0.7607,0.7612,0.7621,0.7622,0.7626,0.7627,0.7625,0.7625,0.7628,0.7628,0.7629,0.7629,0.7629,0.7629,0,0.7521,0.7528,0.7537,0.7547,0.755,0.7555,0.7564,0.7569,0.7575,0.7583,0.7585,0.7594,0.7602,0.7609,0.762,0.7623,0.7633,0.7634,0.763,0.7631,0.7634,0.7634,0.7644,0.7646,0.764,0.764,0.764,0,0.7523,0.7528,0.7539,0.7544,0.7549,0.7556,0.7561,0.7568,0.7574,0.7584,0.7588,0.7597,0.7605,0.7618,0.7625,0.7634,0.7636,0.7639,0.7637,0.7636,0.7637,0.7636,0.7637,0.7639,0.7639,0.7639,0.7639,0,0.7525,0.7529,0.7536,0.7545,0.7552,0.7559,0.7566,0.757,0.7579,0.7584,0.7594,0.7599,0.7611,0.762,0.763,0.7636,0.7639,0.764,0.7641,0.764,0.7638,0.7639,0.7631,0.7639,0.7639,0.7639,0.7639,0.7639,0.7526,0.7531,0.754,0.7549,0.7555,0.7562,0.7568,0.7575,0.7582,0.7593,0.7597,0.7606,0.7615,0.7629,0.7634,0.7642,0.7643,0.7644,0.7645,0.7645,0.7646,0.7636,0.7644,0.7644,0.7644,0.7644,0.7644,0,0.7529,0.7536,0.7543,0.7554,0.7561,0.7564,0.7573,0.7579,0.7587,0.7595,0.7603,0.7614,0.7623,0.7632,0.7642,0.7646,0.7648,0.7649,0.7649,0.765,0.7645,0.7643,0.7647,0.7647,0.7647,0.7647,0.7647,0.7647,0.7532,0.754,0.7545,0.7558,0.7564,0.7574,0.7579,0.7586,0.7593,0.7605,0.7613,0.7618,0.7627,0.7638,0.7647,0.7649,0.7653,0.7653,0.7656,0.7651,0.765,0.765,0.7648,0.7654,0.7654,0.7661,0.7661,0.7661]},{"header":{"parameterUnit":"m.s-1","parameterCategory":1,"la1":30.2991,"la2":30.254,"lo1":-89.0895,"lo2":-89.0444,"dy":0.0017,"dx":0.0017,"nx":28,"ny":28,"refTime":"2025-07-31T09:00:00:Z","depth":0,"parameterNumber":3,"parameterNumberName":"V-component_of_WINDS"},"data":[0,0,0,0,0,0,0,0,0,0,0,0,0,0,0,0,0,0,0,0,0,0,0,0,0,0,0,0,0,0,0,0,0,0,0,0,0,0,0,0,0,0,0,0,0,0,0,0,0,0,0,0,0,0,0,0,0,0,-0.6516,-0.6516,0,-0.66,-0.6601,-0.6602,-0.6644,-0.6644,-0.6644,-0.6644,-0.673,-0.6733,-0.6735,0,0,0,0,0,0,0,0,0,0,0,0,0,-0.6392,-0.6394,-0.6515,-0.6517,-0.6518,-0.6599,-0.6601,-0.6602,-0.6644,-0.6644,-0.6644,-0.6644,-0.673,-0.6732,-0.6735,0,0,0,0,0,0,0,0,0,0,0,0,0,-0.6458,-0.6394,-0.6515,-0.6548,-0.6552,-0.6599,-0.6601,-0.6602,-0.6644,-0.6644,-0.6644,-0.6644,-0.6729,-0.6732,-0.6735,-0.6756,0,0,-0.6746,-0.6747,0,0,0,0,0,0,0,0,-0.6454,-0.6462,-0.6542,-0.6546,-0.655,-0.6611,-0.6589,-0.6654,-0.6644,-0.6609,-0.6644,-0.6644,-0.6691,-0.6697,-0.6713,-0.676,-0.6764,-0.6746,-0.6748,-0.675,-0.6751,0,0,0,0,0,0,0,-0.6449,-0.6459,-0.6549,-0.6543,-0.6548,-0.6559,-0.6568,-0.6601,-0.6649,-0.6612,-0.6615,-0.6624,-0.6693,-0.671,-0.6715,-0.6765,-0.6746,-0.6749,-0.6751,-0.6753,-0.6834,-0.6834,0,0,0,0,0,0,-0.6439,-0.6455,-0.6546,-0.6551,-0.6501,-0.6561,-0.6572,-0.6592,-0.6648,-0.6657,-0.6624,-0.6626,-0.6704,-0.6711,-0.6719,-0.6747,-0.675,-0.6753,-0.6755,-0.6834,-0.6834,-0.6834,0,0,0,0,0,0,-0.6436,-0.6447,-0.6543,-0.6504,-0.6517,-0.6563,-0.6585,-0.6593,-0.661,-0.6658,-0.6667,-0.6633,-0.6704,-0.6714,-0.6747,-0.675,-0.6755,-0.6758,-0.6834,-0.6834,-0.6834,-0.6803,0,0,0,0,0,0,-0.6433,-0.6446,-0.6454,-0.6504,-0.6519,-0.6569,-0.6586,-0.6595,-0.6616,-0.6619,-0.6668,-0.6676,-0.6705,-0.6741,-0.675,-0.6755,-0.676,-0.6834,-0.6834,-0.6834,-0.6804,-0.6802,-0.6801,0,0,0,0,0,-0.6428,-0.6442,-0.6454,-0.6465,-0.653,-0.6569,-0.6578,-0.661,-0.6616,-0.6625,-0.6655,-0.6675,-0.6748,-0.6744,-0.6754,-0.6761,-0.6834,-0.6834,-0.6834,-0.6805,-0.6803,-0.6801,0,0,0,0,0,0,-0.6392,-0.6449,-0.6463,-0.6494,-0.6526,-0.6576,-0.6588,-0.6607,-0.6639,-0.664,-0.668,-0.669,-0.672,-0.6744,-0.6738,-0.6784,-0.6793,-0.6795,-0.6767,-0.6766,-0.6764,-0.6758,-0.6763,0,0,0,0,0,-0.6387,-0.6414,-0.6463,-0.6485,-0.6501,-0.6541,-0.656,-0.6582,-0.6617,-0.6631,-0.6665,-0.6698,-0.6729,-0.6749,-0.678,-0.6808,-0.6819,-0.6817,-0.6816,-0.6814,-0.6816,-0.6832,-0.6832,-0.6835,-0.6835,-0.6835,0,0,-0.6378,-0.6413,-0.6428,-0.6479,-0.6506,-0.6533,-0.6553,-0.6581,-0.6601,-0.6636,-0.6669,-0.6694,-0.6734,-0.6765,-0.678,-0.6786,-0.6817,-0.6814,-0.6813,-0.6815,-0.6832,-0.6832,-0.6832,-0.6835,-0.6835,-0.6835,0,0,-0.6376,-0.6405,-0.6426,-0.6454,-0.6495,-0.6523,-0.6528,-0.6575,-0.6593,-0.6627,-0.6653,-0.6678,-0.6731,-0.6758,-0.6779,-0.6787,-0.6806,-0.6796,-0.6787,-0.6803,-0.6803,-0.6803,-0.6805,-0.6806,-0.6797,-0.6797,-0.6797,0,-0.6359,-0.6401,-0.6435,-0.6461,-0.6483,-0.6515,-0.6538,-0.6563,-0.6612,-0.6627,-0.6632,-0.6699,-0.6728,-0.6766,-0.6767,-0.6783,-0.679,-0.679,-0.68,-0.68,-0.6801,-0.6804,-0.6805,-0.6796,-0.6796,-0.6796,-0.6796,0,-0.6379,-0.6407,-0.642,-0.6467,-0.649,-0.6514,-0.6552,-0.6571,-0.6591,-0.6618,-0.6652,-0.6688,-0.6727,-0.6738,-0.6758,-0.6778,-0.678,-0.6792,-0.6802,-0.6798,-0.6802,-0.6803,-0.6794,-0.6794,-0.6795,-0.6795,0,0,-0.6356,-0.6421,-0.6425,-0.6447,-0.6495,-0.6518,-0.6544,-0.6582,-0.6598,-0.6631,-0.6653,-0.6697,-0.6708,-0.6732,-0.6755,-0.6769,-0.6773,-0.678,-0.6781,-0.6777,-0.6797,-0.6788,-0.6789,-0.6785,-0.6786,-0.6786,-0.6794,0,-0.636,-0.6407,-0.6439,-0.6474,-0.65,-0.6531,-0.6554,-0.6586,-0.6611,-0.6638,-0.6666,-0.6696,-0.6709,-0.6724,-0.6739,-0.6769,-0.6777,-0.6769,-0.6807,-0.6808,-0.6796,-0.6791,-0.6781,-0.6786,-0.6796,-0.6796,-0.6796,0,-0.6371,-0.6403,-0.6441,-0.6486,-0.6499,-0.6518,-0.6556,-0.658,-0.6618,-0.6635,-0.6661,-0.6685,-0.6714,-0.6721,-0.676,-0.6754,-0.6771,-0.6789,-0.679,-0.6795,-0.6802,-0.6795,-0.6789,-0.679,-0.6799,-0.6798,-0.6798,0,-0.6351,-0.6403,-0.6433,-0.645,-0.6504,-0.6517,-0.654,-0.6577,-0.6598,-0.6631,-0.6644,-0.668,-0.6699,-0.6726,-0.6759,-0.6761,-0.6795,-0.6805,-0.6811,-0.681,-0.6817,-0.6816,-0.6813,-0.6828,-0.6828,-0.6828,-0.6828,0,-0.6352,-0.6374,-0.6424,-0.6442,-0.6467,-0.6503,-0.6527,-0.6553,-0.6586,-0.6609,-0.6638,-0.666,-0.6702,-0.6729,-0.6754,-0.6783,-0.6792,-0.6807,-0.6814,-0.6804,-0.6802,-0.6816,-0.6817,-0.6828,-0.6828,-0.6828,-0.6828,0,-0.6333,-0.6368,-0.6402,-0.645,-0.6462,-0.6479,-0.652,-0.6539,-0.6566,-0.6595,-0.6604,-0.6647,-0.668,-0.6715,-0.676,-0.6777,-0.6805,-0.6814,-0.6792,-0.6796,-0.6799,-0.6799,-0.6806,-0.6808,-0.6821,-0.6821,-0.682,0,-0.6332,-0.6349,-0.6399,-0.6417,-0.6439,-0.6468,-0.6489,-0.6525,-0.6546,-0.659,-0.6603,-0.6638,-0.6668,-0.6719,-0.6754,-0.6789,-0.6799,-0.6799,-0.6804,-0.6795,-0.6799,-0.6798,-0.6799,-0.6797,-0.6797,-0.6797,-0.6797,0,-0.6326,-0.6342,-0.6372,-0.6407,-0.6431,-0.6461,-0.6492,-0.6505,-0.6547,-0.6569,-0.6603,-0.6626,-0.6672,-0.6707,-0.6745,-0.6769,-0.679,-0.6795,-0.6798,-0.6789,-0.6775,-0.6782,-0.6788,-0.6794,-0.6794,-0.6795,-0.6795,-0.6795,-0.6316,-0.6333,-0.637,-0.6402,-0.6429,-0.6457,-0.6477,-0.6507,-0.6536,-0.6576,-0.6595,-0.6629,-0.6666,-0.672,-0.6743,-0.677,-0.6777,-0.6781,-0.6782,-0.6783,-0.678,-0.6771,-0.6778,-0.6778,-0.6778,-0.6778,-0.6778,0,-0.6311,-0.6337,-0.6366,-0.6408,-0.6433,-0.645,-0.6485,-0.6505,-0.6534,-0.6567,-0.6596,-0.6635,-0.6668,-0.6706,-0.6742,-0.6756,-0.6766,-0.6764,-0.6764,-0.6769,-0.6773,-0.6766,-0.6755,-0.6755,-0.6755,-0.6755,-0.6755,-0.6755,-0.6312,-0.6341,-0.6362,-0.6405,-0.6431,-0.6464,-0.6483,-0.6509,-0.6535,-0.6577,-0.6605,-0.6629,-0.6664,-0.6702,-0.6734,-0.6744,-0.6756,-0.6751,-0.6764,-0.6767,-0.6769,-0.677,-0.6765,-0.6753,-0.6753,-0.6758,-0.6758,-0.6758]}]]